When you browse on this site, cookies collect data to enhance your experience and personalize the content and advertising you see.
Visit our Privacy Policy to learn more. By continuing to use the site, you agree to this use of cookies and data.
  • In Switzerland
  • List of Countries
  • For 7 days
  • Water Temperature
  • Weather Map
  • Weather Widgets
  • user-avatar
    Login

    Hourly Weather Cheyenne

    Today, 6 June, Saturday

    Time Temperature Precipitation Wind Pressure Humidity
    00:00 +19°C° 0 mm 4 mps 608 mmHg 47%
    01:00 +19°C° 0 mm 2 mps 608 mmHg 50%
    02:00 +19°C° 0 mm 1 mps 607 mmHg 52%
    03:00 +20°C° 0 mm 1 mps 608 mmHg 52%
    04:00 +19°C° 0 mm 2 mps 608 mmHg 52%
    05:00 +19°C° 0 mm 2 mps 608 mmHg 51%
    06:00 +21°C° 0 mm 3 mps 608 mmHg 48%
    07:00 +22°C° 0 mm 4 mps 608 mmHg 44%
    08:00 +23°C° 0 mm 5 mps 608 mmHg 40%
    09:00 +23°C° 0.2 mm 7 mps 607 mmHg 44%
    10:00 +22°C° 0.2 mm 8 mps 606 mmHg 47%
    11:00 +21°C° 0.2 mm 9 mps 606 mmHg 50%
    12:00 +22°C° 0.1 mm 10 mps 606 mmHg 47%
    13:00 +23°C° 0.1 mm 11 mps 606 mmHg 44%
    14:00 +24°C° 0.1 mm 12 mps 606 mmHg 42%
    15:00 +21°C° 4.1 mm 10 mps 605 mmHg 52%
    16:00 +17°C° 4.1 mm 7 mps 604 mmHg 63%
    17:00 +15°C° 4.1 mm 4 mps 603 mmHg 73%
    18:00 +14°C° 0 mm 4 mps 603 mmHg 75%
    19:00 +14°C° 0 mm 3 mps 603 mmHg 77%
    20:00 +13°C° 0 mm 3 mps 602 mmHg 79%
    21:00 +13°C° 0 mm 3 mps 602 mmHg 72%
    22:00 +13°C° 0 mm 3 mps 603 mmHg 65%
    23:00 +13°C° 0 mm 3 mps 603 mmHg 59%

    Tomorrow, 7 June, Sunday

    Time Temperature Precipitation Wind Pressure Humidity
    00:00 +13°C° 0 mm 3 mps 602 mmHg 58%
    01:00 +13°C° 0 mm 4 mps 602 mmHg 56%
    02:00 +13°C° 0 mm 4 mps 602 mmHg 55%
    03:00 +12°C° 0 mm 4 mps 602 mmHg 51%
    04:00 +12°C° 0 mm 4 mps 602 mmHg 47%
    05:00 +12°C° 0 mm 4 mps 603 mmHg 42%
    06:00 +15°C° 0 mm 4 mps 603 mmHg 39%
    07:00 +17°C° 0 mm 5 mps 604 mmHg 35%
    08:00 +20°C° 0 mm 6 mps 605 mmHg 32%
    09:00 +22°C° 0 mm 5 mps 605 mmHg 29%
    10:00 +23°C° 0 mm 4 mps 605 mmHg 26%
    11:00 +25°C° 0 mm 4 mps 605 mmHg 23%
    12:00 +25°C° 0 mm 4 mps 604 mmHg 23%
    13:00 +26°C° 0 mm 4 mps 604 mmHg 24%
    14:00 +26°C° 0 mm 4 mps 604 mmHg 24%
    15:00 +26°C° 0 mm 4 mps 603 mmHg 24%
    16:00 +26°C° 0 mm 4 mps 603 mmHg 25%
    17:00 +26°C° 0 mm 4 mps 603 mmHg 25%
    18:00 +23°C° 0 mm 5 mps 603 mmHg 27%
    19:00 +21°C° 0 mm 6 mps 603 mmHg 29%
    20:00 +19°C° 0 mm 6 mps 603 mmHg 31%
    21:00 +16°C° 0 mm 7 mps 603 mmHg 39%
    22:00 +12°C° 0 mm 7 mps 603 mmHg 47%
    23:00 +10°C° 0 mm 7 mps 603 mmHg 55%

    Day after tomorrow, 8 June, Monday

    Time Temperature Precipitation Wind Pressure Humidity
    00:00 +9°C° 0 mm 8 mps 603 mmHg 57%
    01:00 +8°C° 0 mm 10 mps 603 mmHg 58%
    02:00 +7°C° 0 mm 11 mps 604 mmHg 59%
    03:00 +7°C° 0 mm 10 mps 604 mmHg 56%
    04:00 +7°C° 0 mm 8 mps 605 mmHg 54%
    05:00 +6°C° 0 mm 7 mps 605 mmHg 51%
    06:00 +9°C° 0 mm 6 mps 606 mmHg 49%
    07:00 +11°C° 0 mm 6 mps 607 mmHg 46%
    08:00 +13°C° 0 mm 5 mps 607 mmHg 44%
    09:00 +14°C° 0 mm 5 mps 608 mmHg 43%
    10:00 +16°C° 0 mm 5 mps 608 mmHg 43%
    11:00 +17°C° 0 mm 5 mps 608 mmHg 42%
    12:00 +17°C° 0.4 mm 6 mps 608 mmHg 43%
    13:00 +17°C° 0.4 mm 6 mps 607 mmHg 44%
    14:00 +16°C° 0.4 mm 7 mps 607 mmHg 45%
    15:00 +12°C° 0.4 mm 8 mps 605 mmHg 56%
    16:00 +8°C° 0.4 mm 9 mps 604 mmHg 67%
    17:00 +5°C° 0.4 mm 10 mps 603 mmHg 77%
    18:00 +5°C° 1.1 mm 9 mps 604 mmHg 74%
    19:00 +5°C° 1.1 mm 8 mps 605 mmHg 70%
    20:00 +5°C° 1.1 mm 7 mps 606 mmHg 67%
    21:00 +5°C° 0 mm 7 mps 607 mmHg 62%
    22:00 +5°C° 0 mm 7 mps 607 mmHg 57%
    23:00 +5°C° 0 mm 7 mps 607 mmHg 52%

    9 June, Tuesday

    Time Temperature Precipitation Wind Pressure Humidity
    00:00 +4°C° 0 mm 8 mps 606 mmHg 53%
    01:00 +4°C° 0 mm 8 mps 606 mmHg 54%
    02:00 +2°C° 0 mm 9 mps 606 mmHg 55%
    03:00 +2°C° 0 mm 9 mps 606 mmHg 53%
    04:00 +2°C° 0 mm 10 mps 606 mmHg 51%
    05:00 +2°C° 0 mm 11 mps 607 mmHg 49%
    06:00 +3°C° 0 mm 10 mps 607 mmHg 42%
    07:00 +6°C° 0 mm 10 mps 608 mmHg 36%
    08:00 +8°C° 0 mm 10 mps 609 mmHg 29%
    09:00 +11°C° 0 mm 10 mps 609 mmHg 27%
    10:00 +12°C° 0 mm 10 mps 609 mmHg 25%
    11:00 +14°C° 0 mm 10 mps 610 mmHg 22%
    12:00 +14°C° 0 mm 11 mps 609 mmHg 23%
    13:00 +16°C° 0 mm 11 mps 609 mmHg 23%
    14:00 +16°C° 0 mm 11 mps 609 mmHg 24%
    15:00 +16°C° 0 mm 11 mps 609 mmHg 24%
    16:00 +16°C° 0 mm 11 mps 609 mmHg 25%
    17:00 +16°C° 0 mm 11 mps 609 mmHg 26%
    18:00 +13°C° 0 mm 9 mps 609 mmHg 28%
    19:00 +12°C° 0 mm 8 mps 609 mmHg 30%
    20:00 +10°C° 0 mm 6 mps 609 mmHg 32%
    21:00 +10°C° 0 mm 7 mps 609 mmHg 34%
    22:00 +9°C° 0 mm 7 mps 609 mmHg 35%
    23:00 +9°C° 0 mm 7 mps 610 mmHg 37%

    10 June, Wednesday

    Time Temperature Precipitation Wind Pressure Humidity
    00:00 +8°C° 0 mm 7 mps 609 mmHg 40%
    01:00 +8°C° 0 mm 6 mps 609 mmHg 42%
    02:00 +7°C° 0 mm 5 mps 609 mmHg 44%
    03:00 +7°C° 0 mm 5 mps 609 mmHg 44%
    04:00 +7°C° 0 mm 5 mps 610 mmHg 45%
    05:00 +7°C° 0 mm 5 mps 610 mmHg 45%
    06:00 +10°C° 0 mm 7 mps 611 mmHg 42%
    07:00 +12°C° 0 mm 8 mps 612 mmHg 39%
    08:00 +16°C° 0 mm 9 mps 613 mmHg 37%
    09:00 +17°C° 0 mm 8 mps 614 mmHg 34%
    10:00 +18°C° 0 mm 8 mps 614 mmHg 31%
    11:00 +21°C° 0 mm 7 mps 615 mmHg 29%
    12:00 +22°C° 0 mm 7 mps 615 mmHg 27%
    13:00 +22°C° 0 mm 6 mps 615 mmHg 26%
    14:00 +23°C° 0 mm 6 mps 615 mmHg 24%
    15:00 +23°C° 0 mm 6 mps 615 mmHg 25%
    16:00 +22°C° 0 mm 6 mps 615 mmHg 26%
    17:00 +22°C° 0 mm 6 mps 615 mmHg 27%
    18:00 +19°C° 0 mm 5 mps 614 mmHg 37%
    19:00 +15°C° 0 mm 4 mps 613 mmHg 48%
    20:00 +13°C° 0 mm 3 mps 613 mmHg 58%
    21:00 +12°C° 0 mm 3 mps 613 mmHg 61%
    22:00 +12°C° 0 mm 2 mps 613 mmHg 64%
    23:00 +10°C° 0 mm 2 mps 613 mmHg 66%

    11 June, Thursday

    Time Temperature Precipitation Wind Pressure Humidity
    00:00 +10°C° 0 mm 2 mps 613 mmHg 67%
    01:00 +9°C° 0 mm 2 mps 613 mmHg 68%
    02:00 +9°C° 0 mm 3 mps 613 mmHg 68%
    03:00 +8°C° 0 mm 3 mps 613 mmHg 72%
    04:00 +8°C° 0 mm 3 mps 613 mmHg 76%
    05:00 +7°C° 0 mm 3 mps 613 mmHg 80%
    06:00 +8°C° 0 mm 4 mps 613 mmHg 74%
    07:00 +11°C° 0 mm 4 mps 614 mmHg 68%
    08:00 +13°C° 0 mm 5 mps 614 mmHg 63%
    09:00 +14°C° 0 mm 5 mps 615 mmHg 57%
    10:00 +16°C° 0 mm 5 mps 615 mmHg 52%
    11:00 +19°C° 0 mm 5 mps 615 mmHg 46%
    12:00 +20°C° 0 mm 5 mps 615 mmHg 44%
    13:00 +21°C° 0 mm 5 mps 615 mmHg 42%
    14:00 +22°C° 0 mm 5 mps 615 mmHg 39%
    15:00 +22°C° 0 mm 5 mps 615 mmHg 41%
    16:00 +22°C° 0 mm 5 mps 615 mmHg 42%
    17:00 +21°C° 0 mm 6 mps 615 mmHg 43%
    18:00 +19°C° 0 mm 6 mps 614 mmHg 50%
    19:00 +16°C° 0 mm 5 mps 614 mmHg 56%
    20:00 +14°C° 0 mm 5 mps 614 mmHg 63%
    21:00 +13°C° 0 mm 6 mps 614 mmHg 71%
    22:00 +11°C° 0 mm 6 mps 614 mmHg 78%
    23:00 +10°C° 0 mm 7 mps 614 mmHg 86%
    Show more